Location: Hastringsfeld
(50.9620°N, 10.4787°E)
Time: 04:42:57
(UTC+00:00)

RESURS DK-1 - Pass Details

Date: 26 September 2023
Orbit: 544 x 553 km, 69.9° (Epoch: 29 November)

Event Time Altitude Azimuth Distance (km) Brightness Sun altitude
Exits shadow 01:45:46 28° 52° (NE) 1,044 4.3 -30.3°
Drops below altitude 10° 01:47:52 10° 39° (NE) 1,824 5.9 -30.0°
Sets 01:50:06 0° 35° (NE) 2,723 7.0 -29.8°
